FW9830 Weather Reports


Display with metric or nautical units.
time (UTC)temp
F
wind
direction
speed
MPH
gust
MPH
rain 1hr
in
rain 24hr
in
rain mn
in
humidity
%
barometer
mb
20260506091138 34 163 2.0 2.0 0.00 0.00 0.00 91 1013.0
20260506090636 34 127 2.0 3.0 0.00 0.00 0.00 90 1013.3
20260506090132 35 152 2.0 3.0 0.00 0.00 0.00 90 1013.2
20260506085629 35 140 3.0 3.0 0.00 0.00 0.00 91 1013.1
20260506085125 34 157 3.0 3.0 0.00 0.00 0.00 91 1012.9
20260506084622 34 169 4.0 4.0 0.00 0.00 0.00 91 1013.0
20260506084118 33 40 0.0 1.0 0.00 0.00 0.00 90 1013.4
20260506083615 34 16 0.0 3.0 0.00 0.00 0.00 90 1013.3
20260506083113 34 90 1.0 2.0 0.00 0.00 0.00 90 1013.3
20260506082609 34 132 2.0 4.0 0.00 0.00 0.00 90 1013.0
20260506082105 34 123 3.0 3.0 0.00 0.00 0.00 90 1013.1
20260506081604 34 111 3.0 4.0 0.00 0.00 0.00 90 1013.1
20260506081101 34 144 4.0 4.0 0.00 0.00 0.00 90 1012.9
20260506080558 34 138 3.0 4.0 0.00 0.00 0.00 89 1012.8
20260506073038 35 112 3.0 5.0 0.00 0.00 0.00 81 1013.0
20260506072536 35 139 2.0 6.0 0.00 0.00 0.00 79 1012.7
20260506072033 36 104 4.0 6.0 0.00 0.00 0.00 78 1012.6
20260506071531 36 126 0.0 2.0 0.00 0.00 0.00 78 1012.6
20260506071028 36 132 2.0 2.0 0.00 0.00 0.00 76 1012.5
20260506070525 36 127 0.0 2.0 0.00 0.00 0.00 78 1012.4
20260506062503 37 160 1.0 2.0 0.00 0.00 0.00 68 1012.9
20260506061959 37 165 0.0 2.0 0.00 0.00 0.00 72 1012.8
20260506061455 37 117 2.0 2.0 0.00 0.00 0.00 72 1012.7
20260506060953 38 175 1.0 2.0 0.00 0.00 0.00 67 1012.5
20260506060451 38 197 3.0 3.0 0.00 0.00 0.00 65 1012.7
20260506050920 39 255 0.0 0.0 0.00 0.00 0.00 64 1012.5
20260506050418 40 255 0.0 0.0 0.00 0.00 0.00 63 1012.6
20260506044908 40 259 2.0 2.0 0.00 0.00 0.00 64 1012.7
20260506044406 39 254 0.0 1.0 0.00 0.00 0.00 65 1012.4
20260506043903 38 240 0.0 0.0 0.00 0.00 0.00 67 1012.6
20260506043400 39 240 0.0 0.0 0.00 0.00 0.00 66 1012.5
20260506042858 40 240 1.0 2.0 0.00 0.00 0.00 63 1012.3
20260506042357 40 236 2.0 2.0 0.00 0.00 0.00 63 1012.5
20260506041855 41 233 0.0 2.0 0.00 0.00 0.00 62 1012.5
20260506041354 40 220 1.0 2.0 0.00 0.00 0.00 61 1012.6
20260506040849 41 228 2.0 2.0 0.00 0.00 0.00 60 1012.4
20260506040347 42 234 1.0 2.0 0.00 0.00 0.00 58 1012.4
20260506035842 42 243 1.0 2.0 0.00 0.00 0.00 57 1012.3
20260506035340 41 240 2.0 2.0 0.00 0.00 0.00 59 1012.5
20260506034837 41 254 0.0 0.0 0.00 0.00 0.00 59 1012.6
20260506034334 41 254 0.0 0.0 0.00 0.00 0.00 59 1012.6
20260506033831 42 254 0.0 0.0 0.00 0.00 0.00 58 1012.6
20260506033328 42 254 0.0 2.0 0.00 0.00 0.00 56 1012.4
20260506032825 42 254 0.0 0.0 0.00 0.00 0.00 57 1012.7
20260506032322 42 345 0.0 0.0 0.00 0.00 0.00 56 1012.3
20260506031819 43 353 0.0 3.0 0.00 0.00 0.00 55 1012.6
20260506031316 44 349 0.0 1.0 0.00 0.00 0.00 53 1012.4
20260506030814 44 311 1.0 2.0 0.00 0.00 0.00 53 1012.4
20260506030311 44 351 2.0 4.0 0.00 0.00 0.00 52 1012.4
20260506025808 44 342 2.0 4.0 0.00 0.00 0.00 52 1012.5
20260506025306 44 303 3.0 3.0 0.00 0.00 0.00 53 1012.4
20260506024802 44 335 3.0 5.0 0.00 0.00 0.00 52 1012.1
20260506024258 44 353 5.0 5.0 0.00 0.00 0.00 51 1012.2
20260506023754 45 341 6.0 6.0 0.00 0.00 0.00 50 1012.1
20260506023252 44 339 5.0 6.0 0.00 0.00 0.00 51 1012.2
20260506022748 45 347 4.0 8.0 0.00 0.00 0.00 51 1012.2
20260506022246 45 351 5.0 6.0 0.00 0.00 0.00 50 1012.1
20260506021744 45 338 6.0 8.0 0.00 0.00 0.00 50 1011.8
20260506021241 45 341 5.0 9.0 0.00 0.00 0.00 49 1011.9
20260506020737 45 344 6.0 8.0 0.00 0.00 0.00 50 1011.9
20260506020235 46 339 6.0 9.0 0.00 0.00 0.00 49 1011.9
20260506015732 46 328 6.0 8.0 0.00 0.00 0.00 49 1011.8
20260506015230 46 321 8.0 11.0 0.00 0.00 0.00 48 1011.8
20260506014727 46 341 5.0 8.0 0.00 0.00 0.00 48 1011.7
20260506014223 46 339 11.0 14.0 0.00 0.00 0.00 47 1011.5
20260506013720 46 335 7.0 10.0 0.00 0.00 0.00 47 1011.5
20260506013218 46 354 5.0 12.0 0.00 0.00 0.00 46 1011.1
20260506012713 46 343 7.0 13.0 0.00 0.00 0.00 46 1011.1
20260506012211 46 338 5.0 11.0 0.00 0.00 0.00 45 1011.2
20260506011708 46 338 7.0 14.0 0.00 0.00 0.00 45 1011.2
20260506011204 47 339 9.0 14.0 0.00 0.00 0.00 45 1011.0
20260506010703 46 344 7.0 9.0 0.00 0.00 0.00 45 1010.8
20260506010200 47 341 7.0 14.0 0.00 0.00 0.00 44 1011.1
20260506005657 47 355 8.0 17.0 0.00 0.00 0.00 43 1011.1
20260506005153 47 323 11.0 13.0 0.00 0.00 0.00 44 1010.9
20260506004649 48 334 10.0 17.0 0.00 0.00 0.00 43 1011.2
20260506004147 48 350 7.0 16.0 0.00 0.00 0.00 44 1010.8
20260506003643 48 332 10.0 17.0 0.00 0.00 0.00 43 1010.7
20260506003139 48 330 14.0 20.0 0.00 0.00 0.00 43 1011.0
20260506002635 48 0 6.0 18.0 0.00 0.00 0.00 44 1010.7
20260506002132 49 339 9.0 19.0 0.00 0.00 0.00 43 1010.9
20260506001627 48 346 10.0 16.0 0.00 0.00 0.00 43 1010.8
20260506001125 48 322 7.0 13.0 0.00 0.00 0.00 44 1010.8
20260506000622 49 340 12.0 22.0 0.00 0.00 0.00 43 1010.8
20260506000119 49 359 11.0 14.0 0.00 0.00 0.00 43 1010.8
20260505235618 49 331 11.0 16.0 0.00 0.00 0.00 43 1010.9
20260505235114 49 336 21.0 21.0 0.00 0.00 0.00 43 1010.7
20260505234611 49 337 9.0 26.0 0.00 0.00 0.00 41 1010.8
20260505234108 50 353 11.0 19.0 0.00 0.00 0.00 42 1010.4
20260505233606 49 338 11.0 16.0 0.00 0.00 0.00 41 1010.6
20260505233103 50 324 8.0 17.0 0.00 0.00 0.00 41 1010.6
20260505232601 50 312 13.0 21.0 0.00 0.00 0.00 43 1010.5
20260505232058 50 331 5.0 20.0 0.00 0.00 0.00 41 1010.3
20260505231554 50 340 15.0 17.0 0.00 0.00 0.00 41 1010.3
20260505231053 50 353 9.0 19.0 0.00 0.00 0.00 42 1010.4
20260505230550 50 349 12.0 20.0 0.00 0.00 0.00 41 1010.5
20260505230046 51 342 17.0 22.0 0.00 0.00 0.00 40 1010.4
20260505225543 51 299 15.0 24.0 0.00 0.00 0.00 40 1010.2
20260505225039 52 320 6.0 15.0 0.00 0.00 0.00 41 1010.0
20260505224537 52 334 13.0 30.0 0.00 0.00 0.00 41 1010.3
20260505224034 52 338 9.0 20.0 0.00 0.00 0.00 40 1009.8
20260505223531 51 333 9.0 24.0 0.00 0.00 0.00 41 1009.9
20260505223027 52 338 8.0 15.0 0.00 0.00 0.00 41 1009.8
20260505222523 51 337 10.0 27.0 0.00 0.00 0.00 41 1010.0
20260505222019 52 323 11.0 19.0 0.00 0.00 0.00 39 1009.8
20260505221517 51 320 15.0 28.0 0.00 0.00 0.00 39 1010.0
20260505221013 52 316 12.0 21.0 0.00 0.00 0.00 39 1009.9
20260505220511 53 308 15.0 24.0 0.00 0.00 0.00 39 1009.8
20260505220009 52 313 19.0 19.0 0.00 0.00 0.00 39 1009.5
20260505215506 52 328 11.0 19.0 0.00 0.00 0.00 40 1009.9
20260505215004 52 336 13.0 21.0 0.00 0.00 0.00 40 1009.8
20260505214502 52 328 16.0 24.0 0.00 0.00 0.00 39 1009.6
20260505213958 53 345 11.0 28.0 0.00 0.00 0.00 40 1009.8
20260505213456 53 304 15.0 24.0 0.00 0.00 0.00 40 1009.7
20260505212952 53 299 22.0 29.0 0.00 0.00 0.00 40 1009.5
20260505212449 53 316 17.0 24.0 0.00 0.00 0.00 41 1009.7
20260505211945 53 335 13.0 17.0 0.00 0.00 0.00 38 1009.6
20260505211443 53 341 15.0 22.0 0.00 0.00 0.00 39 1009.7
20260505210939 52 304 23.0 23.0 0.00 0.00 0.00 40 1009.4
20260505210436 53 312 14.0 25.0 0.00 0.00 0.00 41 1009.7
20260505205933 53 310 29.0 29.0 0.00 0.00 0.00 40 1009.6
20260505205432 52 333 18.0 30.0 0.00 0.00 0.00 40 1009.5
20260505204928 53 308 17.0 20.0 0.00 0.00 0.00 40 1009.5
20260505204426 52 324 13.0 24.0 0.00 0.00 0.00 38 1009.6
20260505203923 52 314 24.0 36.0 0.00 0.00 0.00 39 1009.4
20260505203419 51 343 15.0 27.0 0.00 0.00 0.00 39 1009.3
20260505202916 51 17 10.0 23.0 0.00 0.00 0.00 39 1009.5
20260505202412 52 318 15.0 26.0 0.00 0.00 0.00 42 1009.6
20260505201909 52 327 14.0 26.0 0.00 0.00 0.00 41 1009.6
20260505201406 51 300 18.0 24.0 0.00 0.00 0.00 41 1009.6
20260505200904 52 309 20.0 27.0 0.00 0.00 0.00 42 1009.6
20260505200401 51 308 17.0 27.0 0.00 0.00 0.00 41 1009.5
20260505195856 52 317 24.0 24.0 0.00 0.00 0.00 41 1009.6
20260505195354 52 306 20.0 24.0 0.00 0.00 0.00 42 1009.8
20260505194851 51 315 21.0 32.0 0.00 0.00 0.00 43 1009.6
20260505194348 51 299 13.0 25.0 0.00 0.00 0.00 43 1009.7
20260505193843 52 306 12.0 22.0 0.00 0.00 0.00 43 1009.8
20260505193341 51 306 20.0 31.0 0.00 0.00 0.00 40 1009.6
20260505192838 52 300 24.0 28.0 0.00 0.00 0.00 41 1009.5
20260505192337 52 316 16.0 29.0 0.00 0.00 0.00 42 1009.5
20260505191834 51 296 10.0 21.0 0.00 0.00 0.00 43 1009.4
20260505191332 51 352 16.0 19.0 0.00 0.00 0.00 45 1009.4
20260505190829 51 312 15.0 22.0 0.00 0.00 0.00 44 1009.3
20260505190324 51 331 4.0 16.0 0.00 0.00 0.00 42 1009.1
20260505185820 52 306 17.0 20.0 0.00 0.00 0.00 41 1009.2
20260505185317 51 317 17.0 27.0 0.00 0.00 0.00 40 1009.1
20260505184813 51 306 9.0 25.0 0.00 0.00 0.00 38 1009.0
20260505184310 51 321 11.0 20.0 0.00 0.00 0.00 40 1009.0
20260505183807 51 222 12.0 23.0 0.00 0.00 0.00 40 1009.2
20260505183304 51 320 13.0 22.0 0.00 0.00 0.00 39 1009.2
20260505182801 52 276 11.0 22.0 0.00 0.00 0.00 40 1009.0
20260505182257 51 289 11.0 20.0 0.00 0.00 0.00 40 1009.0
20260505181754 51 314 19.0 20.0 0.00 0.00 0.00 39 1009.0
20260505181251 53 289 13.0 23.0 0.00 0.00 0.00 41 1009.0
20260505180748 52 9 3.0 22.0 0.00 0.00 0.00 41 1009.0
20260505180244 51 311 6.0 26.0 0.00 0.00 0.00 42 1008.9
20260505175741 51 250 18.0 28.0 0.00 0.00 0.00 40 1008.9
20260505175237 52 282 5.0 22.0 0.00 0.00 0.00 42 1008.9
20260505174734 51 273 10.0 24.0 0.00 0.00 0.00 42 1008.9
20260505174231 50 258 15.0 23.0 0.00 0.00 0.00 42 1008.7
20260505173727 50 251 8.0 21.0 0.00 0.00 0.00 43 1008.9
20260505173224 50 294 17.0 24.0 0.00 0.00 0.00 44 1008.9
20260505172721 51 329 10.0 20.0 0.00 0.00 0.00 45 1009.0
20260505172218 51 232 13.0 24.0 0.00 0.00 0.00 43 1008.8
20260505171718 51 249 14.0 26.0 0.00 0.00 0.00 45 1008.9
20260505171215 50 328 5.0 23.0 0.00 0.00 0.00 43 1008.8
20260505170712 51 310 18.0 20.0 0.00 0.00 0.00 46 1008.9
20260505170209 50 318 10.0 22.0 0.00 0.00 0.00 46 1008.7
20260505165704 51 258 12.0 24.0 0.00 0.00 0.00 47 1008.8
20260505165200 51 259 3.0 22.0 0.00 0.00 0.00 44 1008.8
20260505164655 51 262 13.0 22.0 0.00 0.00 0.00 46 1008.6
20260505164153 50 241 20.0 21.0 0.00 0.00 0.00 45 1008.5
20260505163651 51 332 7.0 23.0 0.00 0.00 0.00 44 1008.8
20260505163149 50 255 9.0 21.0 0.00 0.00 0.00 47 1008.5
20260505162646 50 298 18.0 22.0 0.00 0.00 0.00 47 1008.6
20260505162143 49 251 10.0 22.0 0.00 0.00 0.00 49 1008.3
20260505161640 50 300 5.0 23.0 0.00 0.00 0.00 47 1008.7
20260505161137 50 283 13.0 20.0 0.00 0.00 0.00 49 1008.6
20260505160635 48 295 16.0 23.0 0.00 0.00 0.00 50 1008.6
20260505160132 51 38 4.0 23.0 0.00 0.00 0.00 52 1008.7
20260505153112 50 315 12.0 20.0 0.00 0.00 0.00 51 1008.6
20260505152608 49 229 14.0 24.0 0.00 0.00 0.00 53 1008.6
20260505152104 50 277 9.0 16.0 0.00 0.00 0.00 52 1008.6
20260505151559 49 333 10.0 18.0 0.00 0.00 0.00 52 1008.6
20260505151057 48 251 3.0 20.0 0.00 0.00 0.00 53 1008.6
20260505150553 48 295 14.0 25.0 0.00 0.00 0.00 52 1008.7
20260505140519 47 258 6.0 15.0 0.00 0.00 0.00 53 1008.7
20260505124932 46 296 9.0 13.0 0.00 0.00 0.00 58 1008.5
20260505124429 45 314 12.0 15.0 0.00 0.00 0.00 57 1008.3
20260505123925 45 278 6.0 12.0 0.00 0.00 0.00 59 1008.3
20260505123422 45 295 3.0 13.0 0.00 0.00 0.00 58 1008.3
20260505122917 45 309 6.0 13.0 0.00 0.00 0.00 60 1008.2
20260505122415 44 293 11.0 19.0 0.00 0.00 0.00 58 1008.1
20260505121912 44 309 7.0 11.0 0.00 0.00 0.00 59 1008.1
20260505121409 44 295 6.0 12.0 0.00 0.00 0.00 59 1007.9
20260505120905 44 286 6.0 12.0 0.00 0.00 0.00 59 1007.9
20260505120402 44 309 8.0 12.0 0.00 0.00 0.00 59 1007.7
20260505115900 44 287 6.0 8.0 0.00 0.00 0.00 60 1007.9
20260505115357 43 301 9.0 10.0 0.00 0.00 0.00 60 1007.9
20260505114855 43 322 9.0 11.0 0.00 0.00 0.00 61 1007.8
20260505114351 43 298 4.0 9.0 0.00 0.00 0.00 61 1007.6
20260505113848 43 303 7.0 10.0 0.00 0.00 0.00 60 1007.9
20260505113344 42 322 7.0 8.0 0.00 0.00 0.00 61 1007.8
20260505112840 42 296 5.0 9.0 0.00 0.00 0.00 62 1007.5
20260505112338 42 306 4.0 7.0 0.00 0.00 0.00 62 1007.6
20260505111833 41 289 5.0 6.0 0.00 0.00 0.00 62 1007.6
20260505111329 41 300 6.0 6.0 0.00 0.00 0.00 61 1007.6
20260505110825 41 289 2.0 5.0 0.00 0.00 0.00 60 1007.6
20260505110323 41 261 3.0 4.0 0.00 0.00 0.00 59 1007.4
20260505101757 41 287 3.0 6.0 0.00 0.00 0.00 60 1007.0
20260505101253 41 296 4.0 5.0 0.00 0.00 0.00 60 1007.0
20260505100749 41 313 3.0 5.0 0.00 0.00 0.00 60 1007.0
20260505100246 41 283 3.0 5.0 0.00 0.00 0.00 59 1007.0
20260505095741 41 305 4.0 5.0 0.00 0.00 0.00 60 1007.0
20260505095240 41 301 4.0 5.0 0.00 0.00 0.00 61 1007.0
20260505094735 40 303 3.0 5.0 0.00 0.00 0.00 62 1007.2
20260505094231 41 332 2.0 5.0 0.00 0.00 0.00 62 1007.2
20260505093727 41 324 4.0 5.0 0.00 0.00 0.00 61 1007.0
20260505093225 41 315 3.0 5.0 0.00 0.00 0.00 60 1006.7
20260505092722 41 298 3.0 5.0 0.00 0.00 0.00 61 1006.8
20260505092221 41 296 3.0 4.0 0.00 0.00 0.00 61 1006.9
20260505091717 41 236 3.0 5.0 0.00 0.00 0.00 59 1006.5